Weather History for North Island, CA

Change the Weather History Date:

Tuesday, January 22, 2013

  Actual Average Record
Temperature  
Mean Temperature 64 °F -  
Max Temperature 82 °F 61 °F 82 °F (2013)
Min Temperature 46 °F 48 °F 43 °F (2006)
Degree Days  
Heating Degree Days 1    
Growing Degree Days 14 (Base 50)    
Moisture  
Dew Point 30 °F    
Average Humidity 39    
Maximum Humidity 69    
Minimum Humidity 6    
Precipitation  
Precipitation 0.00 in - - ()
Sea Level Pressure  
Sea Level Pressure 30.04 in    
Wind  
Wind Speed 3 mph (NNW)    
Max Wind Speed 9 mph    
Max Gust Speed -    
Visibility 10 miles    
Events      
Averages and records for this station are not official NWS values.
T = Trace of Precipitation, MM = Missing Value Source: NWS Daily Summary

Daily Weather History Graph

Daily Weather History Graph

Search for Another Location

Airport:

Trip Planner

Search our weather history database for the weather conditions in past years. The results will help you decide how hot, cold, wet, or windy it might be!

Date:

Astronomy

Jan. 22, 2013 Rise Set
Actual Time 6:48 AM PST 5:12 PM PST
Civil Twilight 6:22 AM PST 5:38 PM PST
Nautical Twilight 5:52 AM PST 6:08 PM PST
Astronomical Twilight 5:23 AM PST 6:38 PM PST
Moon 1:41 PM PST (1/22) 3:12 AM PST (1/22)
Length of Visible Light 11h 16m
Length of Day
10h 23m
Waxing Gibbous, 83% of the Moon is Illuminated
Jan 22
Waxing Gibbous
Jan 26
Full
Feb 3
Last Quarter
Feb 9
New
Feb 17
First Quarter

Hourly Weather History & Observations

Time (PST) Temp. Dew Point Humidity Pressure Visibility Wind Dir Wind Speed Gust Speed Precip Events Conditions
12:52 AM 53.1 °F 28.9 °F 40% 30.04 in 10.0 mi North 4.6 mph - N/A   Scattered Clouds
1:52 AM 53.1 °F 35.1 °F 50% 30.05 in 10.0 mi North 3.5 mph - N/A   Scattered Clouds
2:52 AM 51.1 °F 35.1 °F 54% 30.05 in 10.0 mi Calm Calm - N/A   Mostly Cloudy
3:52 AM 50.0 °F 30.9 °F 48% 30.04 in 10.0 mi Calm Calm - N/A   Mostly Cloudy
4:52 AM 51.1 °F 34.0 °F 52% 30.04 in 10.0 mi NNE 3.5 mph - N/A   Mostly Cloudy
5:52 AM 46.9 °F 33.1 °F 59% 30.05 in 10.0 mi Calm Calm - N/A   Mostly Cloudy
6:52 AM 48.0 °F 34.0 °F 58% 30.06 in 10.0 mi Calm Calm - N/A   Mostly Cloudy
7:52 AM 53.1 °F 34.0 °F 48% 30.06 in 10.0 mi ENE 3.5 mph - N/A   Mostly Cloudy
8:52 AM 61.0 °F 28.0 °F 29% 30.08 in 10.0 mi Calm Calm - N/A   Scattered Clouds
9:52 AM 68.0 °F 21.0 °F 17% 30.08 in 10.0 mi NW 3.5 mph - N/A   Scattered Clouds
10:52 AM 78.1 °F 12.0 °F 8% 30.06 in 10.0 mi NNE 4.6 mph - N/A   Scattered Clouds
11:52 AM 80.1 °F 9.0 °F 7% 30.01 in 10.0 mi NNW 3.5 mph - N/A   Scattered Clouds
12:52 PM 82.9 °F 10.0 °F 6% 30.00 in 10.0 mi SW 3.5 mph - N/A   Scattered Clouds
1:52 PM 81.0 °F 10.0 °F 7% 30.00 in 10.0 mi WNW 9.2 mph - N/A   Mostly Cloudy
2:52 PM 79.0 °F 10.9 °F 8% 30.01 in 10.0 mi North 5.8 mph - N/A   Mostly Cloudy
3:52 PM 75.0 °F 15.1 °F 10% 30.02 in 10.0 mi North 5.8 mph - N/A   Mostly Cloudy
4:52 PM 66.0 °F 42.1 °F 42% 30.03 in 8.0 mi Calm Calm - N/A   Mostly Cloudy
5:52 PM 59.0 °F 48.9 °F 69% 30.04 in 9.0 mi South 3.5 mph - N/A   Mostly Cloudy
6:52 PM 57.9 °F 46.9 °F 67% 30.04 in 10.0 mi Calm Calm - N/A   Mostly Cloudy
7:52 PM 60.1 °F 46.9 °F 62% 30.05 in 10.0 mi WNW 3.5 mph - N/A   Mostly Cloudy
8:52 PM 60.1 °F 42.1 °F 51% 30.04 in 10.0 mi Calm Calm - N/A   Mostly Cloudy
9:52 PM 59.0 °F 39.9 °F 49% 30.06 in 9.0 mi Calm Calm - N/A   Partly Cloudy
10:52 PM 57.9 °F 41.0 °F 53% 30.05 in 10.0 mi Calm Calm - N/A   Mostly Cloudy
11:52 PM 61.0 °F 37.0 °F 41% 30.04 in 10.0 mi NE 3.5 mph - N/A   Overcast